Simultaneous Nadir Overpasses (SNOs) Predictions

Prediction of SNOs between METOP-B and NOAA-19 Satellite Orbit:

Table of predicted SNOs for the next 14.0 days since TLE Epoch: 5/21/2022
Index Date (METOP-B) Time (METOP-B) Lat,Lon (METOP-B) SZA (METOP-B ) Date (NOAA-19) Time (NOAA-19) Lat,Lon (NOAA-19) SZA (NOAA-19 ) Distance(km) Time Diff (sec)
1 05/23/2022 07:01:47 80.82, 107.45 61.83 05/23/2022 07:00:36 80.84, 107.55 61.83 2.20 71
2 05/23/2022 07:52:27 -80.84, -84.91 118.14 05/23/2022 07:51:34 -80.83, -84.85 118.16 1.50 53
3 05/23/2022 08:43:08 80.83, 82.33 61.85 05/23/2022 08:42:35 80.83, 82.40 61.84 1.24 33
4 05/23/2022 09:33:49 -80.83,-110.38 118.17 05/23/2022 09:33:34 -80.83,-110.38 118.17 0.25 15
5 05/23/2022 10:24:30 80.83, 56.86 61.82 05/23/2022 10:24:35 80.83, 56.88 61.82 0.42 5
6 05/23/2022 11:15:11 -80.82,-135.85 118.20 05/23/2022 11:15:34 -80.83,-135.90 118.19 1.03 23
7 05/23/2022 12:05:52 80.82, 31.39 61.79 05/23/2022 12:06:35 80.83, 31.36 61.81 1.25 43
8 05/23/2022 12:56:32 -80.84,-160.97 118.18 05/23/2022 12:57:33 -80.82,-161.06 118.18 2.03 61
9 06/03/2022 13:19:19 80.84, 13.40 60.09 06/03/2022 13:18:20 80.84, 13.39 60.07 0.37 59
10 06/03/2022 14:10:00 -80.85,-179.18 119.90 06/03/2022 14:09:16 -80.84,-179.16 119.93 1.28 44
11 06/03/2022 15:00:41 80.83, -12.08 60.07 06/03/2022 15:00:20 80.84, -12.14 60.06 1.17 21
12 06/03/2022 15:51:22 -80.84, 155.34 119.93 06/03/2022 15:51:16 -80.84, 155.31 119.94 0.71 6
13 06/03/2022 16:42:02 80.85, -37.21 60.09 06/03/2022 16:42:19 80.83, -37.30 60.08 2.13 17
14 06/03/2022 17:32:44 -80.83, 129.86 119.96 06/03/2022 17:33:16 -80.84, 129.77 119.95 1.71 32
15 06/03/2022 18:23:24 80.84, -62.69 60.06 06/03/2022 18:24:19 80.83, -62.83 60.06 2.51 55



Historial Predications of SNOs between METOP-B and NOAA-19
